TimeCST,TemperatureF,Dew PointF,Humidity,Sea Level PressureIn,VisibilityMPH,Wind Direction,Wind SpeedMPH,Gust SpeedMPH,PrecipitationIn,Events,Conditions,WindDirDegrees,DateUTC
12:53 AM,53.1,33.1,47,30.23,8.0,East,3.5,-,N/A,,Clear,100,2013-03-09 06:53:00
1:53 AM,48.9,33.1,54,30.23,6.0,Calm,Calm,-,N/A,,Haze,0,2013-03-09 07:53:00
2:53 AM,48.0,35.1,61,30.22,7.0,East,3.5,-,N/A,,Clear,100,2013-03-09 08:53:00
3:53 AM,48.9,36.0,61,30.22,8.0,ESE,3.5,-,N/A,,Clear,110,2013-03-09 09:53:00
4:53 AM,46.9,37.0,68,30.24,7.0,East,3.5,-,N/A,,Clear,100,2013-03-09 10:53:00
5:53 AM,46.0,37.0,71,30.26,8.0,ENE,3.5,-,N/A,,Clear,70,2013-03-09 11:53:00
6:53 AM,48.9,37.0,64,30.28,7.0,East,6.9,-,N/A,,Clear,90,2013-03-09 12:53:00
8:53 AM,57.9,39.0,49,30.30,10.0,SE,12.7,18.4,N/A,,Clear,140,2013-03-09 14:53:00
9:53 AM,61.0,37.9,42,30.30,10.0,SE,9.2,-,N/A,,Clear,130,2013-03-09 15:53:00
10:53 AM,63.0,36.0,37,30.29,10.0,SE,9.2,-,N/A,,Clear,130,2013-03-09 16:53:00
11:53 AM,64.9,33.1,31,30.27,6.0,SE,11.5,-,N/A,,Haze,130,2013-03-09 17:53:00
12:53 PM,68.0,28.9,23,30.25,10.0,East,10.4,-,N/A,,Clear,100,2013-03-09 18:53:00
1:53 PM,69.1,28.9,22,30.22,10.0,East,6.9,-,N/A,,Clear,90,2013-03-09 19:53:00
2:53 PM,68.0,27.0,21,30.22,10.0,ESE,9.2,-,N/A,,Clear,120,2013-03-09 20:53:00
3:53 PM,66.0,28.0,24,30.22,10.0,ESE,5.8,-,N/A,,Clear,110,2013-03-09 21:53:00
4:53 PM,64.9,30.0,27,30.22,10.0,ESE,4.6,-,N/A,,Clear,120,2013-03-09 22:53:00
5:53 PM,63.0,32.0,31,30.22,10.0,East,3.5,-,N/A,,Clear,100,2013-03-09 23:53:00
6:53 PM,61.0,33.1,35,30.20,10.0,East,3.5,-,N/A,,Clear,100,2013-03-10 00:53:00
7:53 PM,57.9,34.0,41,30.21,10.0,ESE,3.5,-,N/A,,Clear,110,2013-03-10 01:53:00
8:53 PM,57.9,34.0,41,30.21,10.0,East,4.6,-,N/A,,Clear,100,2013-03-10 02:53:00
9:53 PM,55.9,35.1,45,30.19,10.0,East,5.8,-,N/A,,Clear,100,2013-03-10 03:53:00
10:53 PM,55.9,35.1,45,30.16,10.0,ESE,6.9,-,N/A,,Clear,110,2013-03-10 04:53:00
11:53 PM,55.0,37.0,51,30.17,10.0,ESE,3.5,-,N/A,,Clear,110,2013-03-10 05:53:00